Flag for Malaysia Weather past 2 weeks in Langkawi, Malaysia

Now
77 °F

Partly cloudy.


Feels Like: 78 °F
Forecast: 77 / 85 °F
Wind: 2 mph from Northeast

Location: Langkawi

Current Time: Aug 29, 2014 at 7:52:09 AM

Latest Report: Aug 29, 2014 at 7:00 AM


Visibility: 6 mi

Pressure: 29.80 "Hg

Humidity: 94%

Dew point: 75 °F

Location of LangkawiLocation

Historic Weather in Langkawi — Graph

°F

Langkawi temperature yesterday

Maximum temperature yesterday: 82 °F (at 12:00 PM)
Minimum temperature yesterday: 77 °F (at 6:00 AM)
Average temperature yesterday: 79 °F

Past Weeks' High & Low Weather Summary

 TemperatureHumidityPressure
High88 °F (Aug 16, 3:00 PM)100% (Aug 15, 5:00 AM)29.95 "Hg (Aug 15, 5:00 AM)
Low75 °F (Aug 15, 5:00 AM)58% (Aug 27, 3:00 PM)29.71 "Hg (Aug 22, 5:00 PM)
Average81 °F88%29.82 "Hg
* Reported Aug 14 6:00 AM — Aug 29 6:00 AM, Langkawi, Weather by CustomWeather, © 2014

Note: Actual official high and low records may vary slightly from our data, if they occured in-between our weather recording intervals... More about our weather records

Advertising

Langkawi weather history for previous 24 hours

 ConditionsComfort  
Time TempWeatherWind HumidityBarometerVisibility
6:00 AM
Aug 29
77 °FPartly cloudy.2 mph94%29.80 "Hg6 mi
5:00 AM77 °FPartly cloudy.No wind94%29.80 "HgN/A
4:00 AM79 °FPassing clouds.2 mph89%29.80 "HgN/A
3:00 AM77 °FPartly cloudy.2 mph94%29.80 "HgN/A
2:00 AM77 °FPartly cloudy.No wind94%29.83 "Hg6 mi
1:00 AM77 °FPartly cloudy.2 mph100%29.86 "Hg6 mi
12:00 AM77 °FPartly cloudy.1 mph94%29.86 "HgN/A
11:00 PM
Aug 28
77 °FPartly cloudy.2 mph94%29.83 "Hg6 mi
10:00 PM77 °FPartly cloudy.1 mph94%29.83 "HgN/A
9:00 PM79 °FPartly cloudy.2 mph89%29.80 "HgN/A
8:00 PM79 °FPartly cloudy.No wind89%29.80 "HgN/A
7:00 PM81 °FBroken clouds.No wind84%29.77 "HgN/A
6:00 PM81 °FBroken clouds.2 mph84%29.77 "HgN/A
5:00 PM81 °FBroken clouds.No wind79%29.77 "HgN/A
4:00 PM81 °FLight rain. Broken clouds.5 mph84%29.77 "HgN/A
3:00 PM81 °FLight rain. Broken clouds.1 mph89%29.80 "Hg6 mi
2:00 PM81 °FLight rain. Broken clouds.No wind89%29.83 "Hg5 mi
1:00 PM82 °FSprinkles. Broken clouds.6 mph84%29.83 "HgN/A
12:00 PM82 °FBroken clouds.5 mph84%29.86 "HgN/A
11:00 AM81 °FBroken clouds.2 mph89%29.86 "HgN/A
10:00 AM79 °FBroken clouds.3 mph84%29.86 "HgN/A
9:00 AM77 °FBroken clouds.5 mph94%29.83 "HgN/A
7:00 AM77 °FLight rain. Partly cloudy.2 mph94%29.77 "HgN/A
Weather by CustomWeather, © 2014

See weather overviewHow to use our weather pages